User: anonymous
Location: Melbourne
(37.8170°S, 144.9670°E)
Time: 23:59:29
(UTC+10:00)
Language:

Cosmos 962 Rocket - Orbit

View from above orbital plane
View from above orbital plane
View from above satellite
View from above satellite

Ground track
Ground track

The orbit data is extracted from the following two-line orbital elements,

1 10461U 77107B   14243.60792470  .00000032  00000-0  16916-4 0  6295
2 10461 082.9472 051.0196 0034656 123.4371 306.5481 13.76697989850345
Epoch (UTC): 31 August 2014 14:35:24
Eccentricity: 0.0034656
inclination: 82.9472°
perigee height: 950 km
apogee height: 1001 km
right ascension of ascending node: 51.0196°
argument of perigee: 123.4371°
revolutions per day: 13.76697989
mean anomaly at epoch: 306.5481°
orbit number at epoch: 85034

The dashed part of the orbit path shows where the satellite is in the earth's shadow,  

DLR